Weather History for KIMT - December, 2012

Change the Weather History Date:

Monday, December 24, 2012

  Actual Average Record
Temperature  
Mean Temperature 14 °F -  
Max Temperature 23 °F 23 °F 40 °F (1986)
Min Temperature 6 °F 5 °F -24 °F (2004)
Degree Days  
Heating Degree Days 50    
Moisture  
Dew Point 11 °F    
Average Humidity 79    
Maximum Humidity 88    
Minimum Humidity 68    
Precipitation  
Precipitation 0.00 in - - ()
Sea Level Pressure  
Sea Level Pressure 30.03 in    
Wind  
Wind Speed 3 mph (NW)    
Max Wind Speed 12 mph    
Max Gust Speed -    
Visibility 10 miles    
Events      
Averages and records for this station are not official NWS values.
T = Trace of Precipitation, MM = Missing Value Source: NWS Daily Summary

Daily Weather History Graph

Daily Weather History Graph

Search for Another Location

Airport or City:

Trip Planner

Search our weather history database for the weather conditions in past years. The results will help you decide how hot, cold, wet, or windy it might be!

Date:

Astronomy

Dec. 24, 2012 Rise Set
Actual Time 7:32 AM CST 4:12 PM CST
Civil Twilight 6:57 AM CST 4:47 PM CST
Nautical Twilight 6:19 AM CST 5:24 PM CST
Astronomical Twilight 5:43 AM CST 6:01 PM CST
Moon 1:43 PM CST (12/24) 4:06 AM CST (12/24)
Length of Visible Light 9h 49m
Length of Day
8h 40m
Waxing Gibbous, 88% of the Moon is Illuminated
Dec 24
Waxing Gibbous
Dec 28
Full
Jan 4
Last Quarter
Jan 11
New
Jan 18
First Quarter

Hourly Weather History & Observations

Time (CST) Temp. Windchill Dew Point Humidity Pressure Visibility Wind Dir Wind Speed Gust Speed Precip Events Conditions
12:54 AM 6.1 °F - 3.0 °F 87% 30.04 in 10.0 mi Calm Calm - N/A   Scattered Clouds
1:54 AM 9.0 °F - 6.1 °F 88% 30.03 in 10.0 mi Calm Calm - N/A   Overcast
2:54 AM 10.9 °F - 8.1 °F 88% 30.02 in 10.0 mi Calm Calm - N/A   Overcast
3:54 AM 10.9 °F - 7.0 °F 84% 30.00 in 10.0 mi Calm Calm - N/A   Mostly Cloudy
4:09 AM 10.4 °F - 6.8 °F 85% 29.93 in 10.0 mi Calm Calm - N/A   Mostly Cloudy
4:54 AM 12.0 °F - 8.1 °F 84% 30.01 in 10.0 mi Calm Calm - N/A   Overcast
5:54 AM 12.0 °F - 9.0 °F 88% 30.02 in 10.0 mi Calm Calm - N/A   Overcast
6:54 AM 12.9 °F - 9.0 °F 84% 30.02 in 10.0 mi Calm Calm - N/A   Overcast
7:20 AM 12.2 °F - 8.6 °F 85% 29.93 in 10.0 mi Calm Calm - N/A   Overcast
7:54 AM 14.0 °F 8.2 °F 10.0 °F 84% 30.02 in 10.0 mi West 3.5 mph - N/A   Overcast
8:54 AM 15.1 °F - 10.9 °F 84% 30.02 in 10.0 mi Calm Calm - N/A   Overcast
9:52 AM 15.8 °F 10.2 °F 12.2 °F 86% 29.95 in 10.0 mi NW 3.5 mph - N/A   Overcast
9:54 AM 16.0 °F 10.4 °F 12.0 °F 84% 30.03 in 10.0 mi NW 3.5 mph - N/A   Overcast
10:54 AM 19.0 °F 13.9 °F 14.0 °F 81% 30.02 in 10.0 mi NNW 3.5 mph - N/A   Mostly Cloudy
11:54 AM 21.0 °F 14.6 °F 14.0 °F 74% 30.01 in 10.0 mi NNW 4.6 mph - N/A   Overcast
12:54 PM 21.9 °F 12.5 °F 14.0 °F 72% 30.01 in 10.0 mi NNW 8.1 mph - N/A   Mostly Cloudy
1:54 PM 23.0 °F 13.9 °F 14.0 °F 68% 30.01 in 10.0 mi North 8.1 mph - N/A   Overcast
2:33 PM 23.0 °F 13.9 °F 15.8 °F 74% 29.94 in 10.0 mi NNW 8.1 mph - N/A   Overcast
2:54 PM 23.0 °F 13.1 °F 14.0 °F 68% 30.01 in 10.0 mi NNW 9.2 mph - N/A   Overcast
3:54 PM 21.9 °F 14.5 °F 15.1 °F 75% 30.02 in 10.0 mi North 5.8 mph - N/A   Overcast
4:17 PM 21.2 °F 11.7 °F 15.8 °F 80% 29.96 in 10.0 mi NNW 8.1 mph - N/A   Mostly Cloudy
4:47 PM 21.2 °F 11.7 °F 15.8 °F 80% 29.97 in 10.0 mi NNW 8.1 mph - N/A   Overcast
4:54 PM 21.0 °F 12.4 °F 15.1 °F 78% 30.04 in 10.0 mi NNW 6.9 mph - N/A   Overcast
5:54 PM 21.0 °F 9.9 °F 15.1 °F 78% 30.06 in 10.0 mi North 10.4 mph - N/A   Overcast
6:54 PM 19.0 °F 6.8 °F 10.0 °F 68% 30.09 in 10.0 mi NNW 11.5 mph - 0.00 in   Overcast
7:54 PM 18.0 °F 7.7 °F 9.0 °F 68% 30.11 in 10.0 mi NW 8.1 mph - N/A   Overcast
8:54 PM 16.0 °F 7.4 °F 8.1 °F 71% 30.14 in 10.0 mi WNW 5.8 mph - N/A   Overcast
9:54 PM 16.0 °F 7.4 °F 8.1 °F 71% 30.15 in 10.0 mi WNW 5.8 mph - N/A   Overcast
10:54 PM 16.0 °F 7.4 °F 8.1 °F 71% 30.18 in 10.0 mi WNW 5.8 mph - N/A   Overcast
11:54 PM 15.1 °F 6.4 °F 9.0 °F 77% 30.18 in 10.0 mi NW 5.8 mph - N/A   Overcast